DL0GY-13 Weather Reports


time (UTC)temp
C
wind
direction
speed
KPH
gust
KPH
rain 1hr
cm
rain 24hr
cm
rain mn
cm
humidity
%
barometer
mb
20260507164029 13 67 0.0 0.0 0.00 0.00 0.00 61 1015.0
20260507162029 13 90 0.0 0.0 0.00 0.00 0.00 61 1015.1
20260507161029 13 45 0.0 0.0 0.00 0.00 0.00 59 1014.9
20260507160029 13 22 0.0 0.0 0.00 0.00 0.00 60 1015.0
20260507155029 14 67 0.0 0.0 0.00 0.00 0.00 58 1014.8
20260507153029 15 67 0.0 0.0 0.00 0.00 0.00 56 1014.7
20260507152029 15 67 0.0 0.0 0.00 0.00 0.00 59 1014.7
20260507151058 14 90 0.0 0.0 0.00 0.00 0.00 60 1014.7
20260507150029 14 0 0.0 0.0 0.00 0.00 0.00 59 1014.6
20260507145029 15 67 0.0 0.0 0.00 0.00 0.00 59 1014.6
20260507144029 15 67 0.0 0.0 0.00 0.00 0.00 59 1014.7
20260507143029 14 67 0.0 0.0 0.00 0.00 0.00 58 1014.6
20260507141029 15 45 0.0 0.0 0.00 0.00 0.00 58 1014.7
20260507140029 15 45 0.0 0.0 0.00 0.00 0.00 58 1014.8
20260507135029 15 90 0.0 0.0 0.00 0.00 0.00 57 1014.8
20260507134029 15 67 0.0 0.0 0.00 0.00 0.00 56 1014.8
20260507133029 16 45 0.0 0.0 0.00 0.00 0.00 56 1014.9
20260507132029 16 45 0.0 0.0 0.00 0.00 0.00 55 1014.8
20260507131029 16 45 0.0 0.0 0.00 0.00 0.00 54 1014.8
20260507130029 16 0 0.0 0.0 0.00 0.00 0.00 53 1014.9
20260507125029 16 45 0.0 0.0 0.00 0.00 0.00 52 1014.8
20260507124029 17 45 0.0 0.0 0.00 0.00 0.00 51 1014.8
20260507123029 18 22 0.0 0.0 0.00 0.00 0.00 49 1014.8
20260507122029 18 90 0.0 0.0 0.00 0.00 0.00 46 1014.7
20260507121029 22 22 0.0 0.0 0.00 0.00 0.00 42 1014.8
20260507120029 23 22 0.0 0.0 0.00 0.00 0.00 41 1014.8
20260507115029 22 67 0.0 0.0 0.00 0.00 0.00 45 1014.8
20260507114029 23 45 0.0 0.0 0.00 0.00 0.00 43 1014.8
20260507113029 22 67 0.0 0.0 0.00 0.00 0.00 44 1014.7
20260507112029 22 22 0.0 0.0 0.00 0.00 0.00 44 1014.8
20260507111029 23 90 0.0 0.0 0.00 0.00 0.00 41 1014.7
20260507110029 25 45 0.0 0.0 0.00 0.00 0.00 40 1014.7
20260507105029 26 45 0.0 0.0 0.00 0.00 0.00 41 1014.8
20260507104030 23 0 0.0 0.0 0.00 0.00 0.00 45 1014.9
20260507103029 21 90 0.0 0.0 0.00 0.00 0.00 46 1014.7
20260507102029 22 67 0.0 0.0 0.00 0.00 0.00 43 1014.7
20260507101029 23 67 0.0 0.0 0.00 0.00 0.00 44 1014.6
20260507100029 23 45 0.0 0.0 0.00 0.00 0.00 47 1014.6
20260507095029 21 45 0.0 0.0 0.00 0.00 0.00 51 1014.4
20260507092030 17 67 0.0 0.0 0.00 0.00 0.00 56 1014.4
20260507091030 17 67 0.0 0.0 0.00 0.00 0.00 58 1014.3
20260507090029 18 22 0.0 0.0 0.00 0.00 0.00 55 1014.3
20260507084029 21 67 0.0 0.0 0.00 0.00 0.00 51 1014.0
20260507083044 25 45 0.0 0.0 0.00 0.00 0.00 45 1014.0